INTELSAT 602 1 20315C 89087A 12037.00000000 .00000126 00000-0 00000-0 0 3708 2 20315 9.0903 54.1324 0004054 200.4094 58.8353 1.00270064 18 INTELSAT 602 1 20315C 89087A 12040.00000000 .00000126 00000-0 00000-0 0 4006 2 20315 9.0956 54.0774 0003635 200.5828 61.6797 1.00270297 16 INTELSAT 602 [PM] 1 20315C 89087A 12042.76250000 .00000126 00000-0 00000-0 0 4266 2 20315 9.1045 54.0089 0005278 273.0805 266.4376 1.00273194 17 LEASAT 5 1 20410C 90002B 12037.00000000 .00000032 00000-0 00000-0 0 3709 2 20410 9.8843 28.6716 0005860 282.1733 256.7021 1.00273716 17 LEASAT 5 1 20410C 90002B 12040.00000000 .00000033 00000-0 00000-0 0 4008 2 20410 9.8895 28.6324 0005706 285.0344 256.8175 1.00274277 12 INTELSAT 603 1 20523C 90021A 12037.00000000 .00000166 00000-0 00000-0 0 3703 2 20523 8.5935 55.6968 0003828 334.1857 117.1682 1.00267997 13 INTELSAT 603 1 20523C 90021A 12040.00000000 .00000166 00000-0 00000-0 0 4001 2 20523 8.5989 55.6372 0004322 336.7762 117.5938 1.00268324 17 INTELSAT 603 [PM] 1 20523C 90021A 12043.20193287 .00000166 00000-0 00000-0 0 4310 2 20523 8.6097 55.5556 0004445 274.9914 255.2784 1.00271321 19 INTELSAT 601 1 21765C 91075A 11304.00000000 .00000222 00000-0 00000-0 0 30408 2 21765 6.5235 61.6003 0005454 37.2101 324.8354 0.99743353 15 INTELSAT 601 1 21765C 91075A 11307.00000000 .00000193 00000-0 00000-0 0 30701 2 21765 6.4759 61.6442 0004376 48.5412 309.6824 0.99666957 11 INTELSAT 601 [PM] 1 21765C 91075A 11308.49652778 .00000177 00000-0 00000-0 0 30836 2 21765 6.5323 61.5194 0004271 256.5886 279.0998 0.99629124 19 INTELSAT 701 [PM] 1 22871C 93066A 12036.26753472 -.00000048 00000-0 00000-0 0 3629 2 22871 0.1866 80.7010 0003072 236.7775 70.6219 1.00272074 17 INTELSAT 701 1 22871C 93066A 12037.00000000 -.00000048 00000-0 00000-0 0 3703 2 22871 0.1880 80.9768 0003109 239.9281 331.6093 1.00272032 17 INTELSAT 701 1 22871C 93066A 12040.00000000 -.00000048 00000-0 00000-0 0 4001 2 22871 0.1919 80.7089 0003090 251.9177 322.8481 1.00271366 13 INTELSAT 702 1 23124C 94034A 12037.00000000 .00000217 00000-0 00000-0 0 3708 2 23124 0.5392 80.2867 0003262 238.8661 223.8680 1.00272680 17 INTELSAT 702 1 23124C 94034A 12040.00000000 .00000217 00000-0 00000-0 0 4006 2 23124 0.5434 80.1552 0003221 248.1284 217.6895 1.00270695 17 INTELSAT 702 [PM] 1 23124C 94034A 12045.13694444 .00000217 00000-0 00000-0 0 4512 2 23124 0.5594 79.6722 0002927 258.7025 261.9603 1.00270263 18 INTELSAT 706 1 23571C 95023A 12037.00000000 .00000033 00000-0 00000-0 0 3709 2 23571 0.4740 79.1869 0003783 250.9795 237.3491 1.00272911 16 INTELSAT 706 1 23571C 95023A 12040.00000000 .00000033 00000-0 00000-0 0 4007 2 23571 0.4781 79.0492 0003770 250.6792 240.7434 1.00271645 10 INTELSAT 706 [PM] 1 23571C 95023A 12040.63194444 .00000033 00000-0 00000-0 0 4057 2 23571 0.4793 78.9331 0003697 251.5912 108.0702 1.00271504 13 PAKSAT 1 [PM] 1 23779C 96006A 12020.50000000 .00000169 00000-0 00000-0 0 2044 2 23779 0.1968 90.0191 0004318 359.5852 223.2478 0.99603997 18 PAKSAT 1 1 23779C 96006A 12037.00000000 -.00000109 00000-0 00000-0 0 3706 2 23779 0.2261 83.7984 0004613 354.3216 31.1457 0.99597423 18 PAKSAT 1 1 23779C 96006A 12040.00000000 -.00000146 00000-0 00000-0 0 4005 2 23779 0.2299 83.5383 0005253 352.1835 29.2042 0.99596177 17 INTELSAT 707 1 23816C 96015A 12037.00000000 -.00000189 00000-0 00000-0 0 3706 2 23816 0.0084 48.9208 0003489 280.7214 112.8879 1.00272134 10 INTELSAT 707 1 23816C 96015A 12040.00000000 -.00000201 00000-0 00000-0 0 4009 2 23816 0.0336 316.8931 0003544 22.1783 106.4129 1.00269391 19 INTELSAT 707 [PM] 1 23816C 96015A 12042.87916667 -.00000196 00000-0 00000-0 0 4273 2 23816 0.0203 9.7204 0003386 339.8095 55.2909 1.00272022 13 INTELSAT 24 [PM] 1 23865C 96030B 11209.85091435 .00000245 00000-0 00000-0 0 20961 2 23865 2.7584 72.8703 0003258 68.1628 147.9033 1.00214055 14 INTELSAT 24 1 23865C 96030B 12037.00000000 .00000244 00000-0 00000-0 0 3708 2 23865 3.1993 70.6837 0003170 249.4148 206.3918 1.00273448 14 INTELSAT 24 1 23865C 96030B 12040.00000000 .00000244 00000-0 00000-0 0 4006 2 23865 3.2038 70.6113 0003146 260.9204 197.9463 1.00274440 19 INTELSAT 709 1 23915C 96035A 12037.00000000 -.00000040 00000-0 00000-0 0 3704 2 23915 0.0151 205.6999 0002388 106.0387 255.8879 1.00270248 14 INTELSAT 709 1 23915C 96035A 12040.00000000 .00000047 00000-0 00000-0 0 4008 2 23915 0.0319 234.7547 0002316 94.0377 241.7686 1.00269028 12 INTELSAT 709 [PM] 1 23915C 96035A 12041.60663194 .00000031 00000-0 00000-0 0 4142 2 23915 0.0505 275.6056 0002016 63.4096 91.5134 1.00271572 19 INTELSAT 26 [PM] 1 24732C 97007A 11310.05936343 .00000203 00000-0 00000-0 0 31002 2 24732 3.6006 68.9040 0003271 136.7171 270.9948 1.00273620 12 INTELSAT 26 1 24732C 97007A 12037.00000000 .00000203 00000-0 00000-0 0 3702 2 24732 3.8073 67.9808 0004227 275.1688 202.6648 1.00271565 17 INTELSAT 26 1 24732C 97007A 12040.00000000 .00000203 00000-0 00000-0 0 4000 2 24732 3.8118 67.9175 0004469 283.6551 197.2124 1.00272350 16 INTELSAT 801 1 24742C 97009A 12037.00000000 -.00000123 00000-0 00000-0 0 3707 2 24742 3.0309 70.5537 0002076 271.4684 124.0051 1.00271147 17 INTELSAT 801 1 24742C 97009A 12040.00000000 -.00000123 00000-0 00000-0 0 4005 2 24742 3.0351 70.4798 0002365 284.5765 113.9216 1.00272733 10 INTELSAT 801 [PM] 1 24742C 97009A 12044.90620370 -.00000123 00000-0 00000-0 0 4477 2 24742 3.0535 66.5489 0002360 288.5654 84.8991 1.00273881 14 GALAXY 25 1 24812C 97026A 12037.00000000 -.00000072 00000-0 00000-0 0 3707 2 24812 0.0116 154.3699 0003213 171.7603 76.2897 1.00271732 11 GALAXY 25 1 24812C 97026A 12040.00000000 -.00000072 00000-0 00000-0 0 4005 2 24812 0.0084 146.6430 0003297 191.9303 66.8064 1.00270909 11 GALAXY 25 [PM] 1 24812C 97026A 12043.66666667 -.00000072 00000-0 00000-0 0 4355 2 24812 0.0079 113.6034 0002883 227.3929 307.9981 1.00271216 16 INTELSAT 5 1 24916C 97046A 12037.00000000 .00000123 00000-0 00000-0 0 3700 2 24916 0.0004 188.1681 0003070 132.2631 344.0811 1.00273005 19 INTELSAT 5 1 24916C 97046A 12040.00000000 .00000050 00000-0 00000-0 0 4007 2 24916 0.0487 278.6434 0003105 50.2815 338.5507 1.00271407 11 INTELSAT 805 1 25371C 98037A 12037.00000000 -.00000291 00000-0 00000-0 0 3704 2 25371 0.0345 251.2723 0003395 73.9181 114.8274 1.00269041 14 INTELSAT 805 1 25371C 98037A 12040.00000000 -.00000271 00000-0 00000-0 0 4000 2 25371 0.0371 269.3442 0003322 61.4000 112.2401 1.00273114 13 INTELSAT 805 [PM] 1 25371C 98037A 12042.01805556 -.00000193 00000-0 00000-0 0 4207 2 25371 0.0434 287.4051 0003205 52.3363 111.7399 1.00271267 18 INTELSAT 7 1 25473C 98052A 12037.00000000 .00000065 00000-0 00000-0 0 3702 2 25473 0.0025 137.2539 0003613 187.2783 239.6347 1.00271323 13 INTELSAT 7 1 25473C 98052A 12040.00000000 .00000079 00000-0 00000-0 0 4005 2 25473 0.0024 136.8809 0003375 185.3388 244.9127 1.00271219 11 INTELSAT 7 [PM] 1 25473C 98052A 12044.14010417 .00000063 00000-0 00000-0 0 4415 2 25473 0.0375 276.7167 0003149 57.1347 287.7917 1.00270796 12 INTELSAT 8 1 25522C 98065A 12037.00000000 .00000033 00000-0 00000-0 0 3706 2 25522 0.0687 263.0020 0003466 49.9534 348.5698 1.00270555 14 INTELSAT 8 1 25522C 98065A 12040.00000000 .00000033 00000-0 00000-0 0 4004 2 25522 0.0685 265.8044 0003252 58.7958 339.8812 1.00271042 12 INTELSAT 8 [PM] 1 25522C 98065A 12046.32944444 .00000020 00000-0 00000-0 0 4628 2 25522 0.0486 270.8768 0002975 57.3121 101.1162 1.00271850 13 GALAXY 26 1 25626C 99005A 12037.00000000 .00000204 00000-0 00000-0 0 3706 2 25626 0.0053 99.5121 0002865 214.5069 231.5002 1.00271445 14 GALAXY 26 1 25626C 99005A 12040.00000000 .00000205 00000-0 00000-0 0 4005 2 25626 0.0001 142.3544 0002816 186.5042 219.6158 1.00271762 19 GALAXY 26 [PM] 1 25626C 99005A 12045.68440972 -.00000021 00000-0 00000-0 0 4557 2 25626 0.0336 283.1332 0002573 63.2517 94.0689 1.00271849 17 INSAT-2E 1 25666C 99016A 12037.00000000 .00000039 00000-0 00000-0 0 3708 2 25666 0.6154 79.6713 0004045 267.3798 219.8051 1.00254574 16 INSAT-2E 1 25666C 99016A 12040.00000000 .00000041 00000-0 00000-0 0 4009 2 25666 0.6196 79.5480 0004277 275.3225 214.7568 1.00254276 19 GALAXY 27 1 25922C 99052A 12037.00000000 .00000227 00000-0 00000-0 0 3702 2 25922 0.0126 85.9712 0002552 228.4980 226.1424 1.00274335 17 GALAXY 27 1 25922C 99052A 12040.00000000 .00000228 00000-0 00000-0 0 4001 2 25922 0.0029 169.5934 0002433 154.2141 219.7830 1.00271840 14 GALAXY 27 [PM] 1 25922C 99052A 12041.50693287 .00000238 00000-0 00000-0 0 4148 2 25922 0.0000 152.9107 0002301 178.4046 36.2484 1.00269818 16 GALAXY 11 [PM] 1 26038C 99071A 11228.45833333 -.00000222 00000-0 00000-0 0 22836 2 26038 0.0200 254.7632 0008084 141.9333 37.5926 1.00252005 14 GALAXY 11 1 26038C 99071A 12037.00000000 -.00000200 00000-0 00000-0 0 3704 2 26038 0.0107 246.7738 0000737 110.0199 83.2284 1.00267313 15 GALAXY 11 1 26038C 99071A 12040.00000000 -.00000193 00000-0 00000-0 0 4003 2 26038 0.0507 280.1958 0000536 88.2010 74.5870 1.00270050 16 INTELSAT 9 1 26451C 00043A 12037.00000000 -.00000145 00000-0 00000-0 0 3702 2 26451 0.0000 132.4112 0002747 187.3496 117.7645 1.00272348 11 INTELSAT 9 1 26451C 00043A 12040.00000000 -.00000227 00000-0 00000-0 0 4001 2 26451 0.0000 130.6245 0002703 202.0342 107.8269 1.00270690 15 INTELSAT 12 1 26590C 00068A 12037.00000000 .00000227 00000-0 00000-0 0 3703 2 26590 0.0001 72.8644 0002399 237.3093 230.3449 1.00271329 17 INTELSAT 12 1 26590C 00068A 12040.00000000 .00000227 00000-0 00000-0 0 4001 2 26590 0.0000 101.6822 0002317 225.9201 215.8715 1.00271812 10 INTELSAT 12 [PM] 1 26590C 00068A 12041.20770833 .00000161 00000-0 00000-0 0 4111 2 26590 0.0429 289.6854 0002263 40.1235 289.6320 1.00269796 10 INTELSAT 1R 1 26608C 00072A 12037.00000000 -.00000195 00000-0 00000-0 0 3703 2 26608 0.0217 202.8162 0001259 93.8543 148.8539 1.00268954 18 INTELSAT 1R 1 26608C 00072A 12040.00000000 -.00000193 00000-0 00000-0 0 4009 2 26608 0.0194 217.6413 0001027 84.9379 145.9044 1.00268648 15 INTELSAT 10 1 26766C 01019A 12037.00000000 .00000070 00000-0 00000-0 0 3701 2 26766 0.0029 120.3230 0000386 133.0156 310.6842 1.00270666 10 INTELSAT 10 1 26766C 01019A 12040.00000000 .00000066 00000-0 00000-0 0 4004 2 26766 0.0055 126.5082 0000136 195.0369 245.4480 1.00268706 14 INTELSAT 901 1 26824C 01024A 12040.00000000 -.00000045 00000-0 00000-0 0 4003 2 26824 0.0000 89.0519 0003235 242.3342 149.0982 1.00270649 12 INTELSAT 901 [PM] 1 26824C 01024A 12042.35446759 -.00000055 00000-0 00000-0 0 4223 2 26824 0.0110 61.6572 0003094 260.2517 288.5033 1.00271216 12 INTELSAT 902 1 26900C 01039A 12037.00000000 .00000135 00000-0 00000-0 0 3705 2 26900 0.0001 70.5494 0003411 251.3111 235.6710 1.00273355 13 INTELSAT 902 1 26900C 01039A 12040.00000000 .00000123 00000-0 00000-0 0 4000 2 26900 0.0000 107.5069 0003356 222.6576 230.3147 1.00270844 11 INTELSAT 902 [PM] 1 26900C 01039A 12044.08125000 .00000123 00000-0 00000-0 0 4404 2 26900 0.0097 71.0223 0003096 268.3244 254.3962 1.00270338 13 INTELSAT 904 1 27380C 02007A 12037.00000000 .00000118 00000-0 00000-0 0 3705 2 27380 0.0098 12.0096 0003311 305.7259 237.7812 1.00271546 13 INTELSAT 904 1 27380C 02007A 12040.00000000 .00000126 00000-0 00000-0 0 4002 2 27380 0.0051 40.7242 0003261 288.5918 229.1551 1.00271722 18 INTELSAT 904 [PM] 1 27380C 02007A 12045.58519676 .00000139 00000-0 00000-0 0 4547 2 27380 0.0256 27.4639 0002822 290.4294 96.7553 1.00270284 10 INTELSAT 903 1 27403C 02016A 12037.00000000 -.00000149 00000-0 00000-0 0 3706 2 27403 0.0020 93.5117 0003403 230.4094 137.1053 1.00270558 17 INTELSAT 903 1 27403C 02016A 12040.00000000 -.00000147 00000-0 00000-0 0 4002 2 27403 0.0051 97.9968 0003330 233.8899 132.0916 1.00271923 11 INTELSAT 903 [PM] 1 27403C 02016A 12043.42871528 -.00000167 00000-0 00000-0 0 4330 2 27403 0.0155 223.0771 0003206 119.6075 279.0076 1.00271006 10 INTELSAT 905 1 27438C 02027A 12037.00000000 -.00000089 00000-0 00000-0 0 3709 2 27438 0.0545 263.8251 0002938 58.8299 148.3678 1.00271449 16 INTELSAT 905 1 27438C 02027A 12040.00000000 -.00000093 00000-0 00000-0 0 4002 2 27438 0.0505 277.2948 0002908 58.0767 138.6078 1.00270854 18 INTELSAT 905 [PM] 1 27438C 02027A 12040.39981482 -.00000092 00000-0 00000-0 0 4038 2 27438 0.0493 278.0292 0002904 44.3302 295.9371 1.00271104 16 GALAXY 3C 1 27445C 02030A 12037.00000000 -.00000074 00000-0 00000-0 0 3705 2 27445 0.0313 244.5719 0000371 98.7785 57.1179 1.00266881 11 GALAXY 3C 1 27445C 02030A 12040.00000000 -.00000036 00000-0 00000-0 0 4001 2 27445 0.0185 218.9105 0000285 301.9960 242.5416 1.00271419 17 INTELSAT 906 1 27513C 02041A 12037.00000000 .00000072 00000-0 00000-0 0 3700 2 27513 0.0039 31.0076 0003236 288.9314 239.7347 1.00271900 14 INTELSAT 906 1 27513C 02041A 12040.00000000 .00000106 00000-0 00000-0 0 4006 2 27513 0.0024 54.4268 0003217 275.8167 232.3862 1.00270715 14 INTELSAT 906 [PM] 1 27513C 02041A 12040.55653935 .00000106 00000-0 00000-0 0 4041 2 27513 0.0047 51.5044 0003145 279.4438 72.5804 1.00270147 19 INTELSAT 907 1 27683C 03007A 12037.00000000 -.00000293 00000-0 00000-0 0 3707 2 27683 0.0418 276.4078 0003300 38.4698 153.1461 1.00272450 12 INTELSAT 907 1 27683C 03007A 12040.00000000 -.00000144 00000-0 00000-0 0 4000 2 27683 0.0001 66.2302 0003207 259.5376 145.2172 1.00271374 15 INTELSAT 907 [PM] 1 27683C 03007A 12044.34380787 -.00000112 00000-0 00000-0 0 4425 2 27683 0.0210 33.6142 0002874 286.8952 278.5211 1.00271736 15 GALAXY 12 [PM] 1 27715C 03013B 12036.89817130 .00000144 00000-0 00000-0 0 3676 2 27715 0.0682 236.6463 0002552 98.7274 354.3985 1.00269549 15 GALAXY 12 1 27715C 03013B 12037.00000000 .00000149 00000-0 00000-0 0 3709 2 27715 0.0683 236.3723 0002562 99.0504 31.1068 1.00269271 17 GALAXY 12 1 27715C 03013B 12040.00000000 .00000149 00000-0 00000-0 0 4007 2 27715 0.0655 232.8590 0002672 114.0963 22.5188 1.00270079 13 GALAXY 23 1 27854C 03034A 12037.00000000 .00000104 00000-0 00000-0 0 3707 2 27854 0.0086 68.9303 0003274 246.3383 59.2456 1.00270519 13 GALAXY 23 1 27854C 03034A 12040.00000000 .00000103 00000-0 00000-0 0 4004 2 27854 0.0124 75.1834 0003205 250.8003 51.4833 1.00270817 12 GALAXY 23 [PM] 1 27854C 03034A 12044.61527778 .00000028 00000-0 00000-0 0 4445 2 27854 0.0195 348.5411 0002972 344.6799 270.3074 1.00269995 16 GALAXY 13 1 27954C 03044A 12037.00000000 .00000138 00000-0 00000-0 0 3706 2 27954 0.0074 104.5432 0000407 188.0193 75.9558 1.00268507 19 GALAXY 13 1 27954C 03044A 12040.00000000 .00000138 00000-0 00000-0 0 4004 2 27954 0.0040 118.8282 0000401 255.9563 356.6794 1.00268870 16 INTELSAT 10-02 1 28358C 04022A 12037.00000000 .00000079 00000-0 00000-0 0 3706 2 28358 0.0145 122.4525 0000997 170.3627 201.7334 1.00269861 14 INTELSAT 10-02 [PM] 1 28358C 04022A 12039.33861111 .00000079 00000-0 00000-0 0 3926 2 28358 0.0090 112.6610 0001068 184.5818 321.4981 1.00272537 10 INTELSAT 10-02 1 28358C 04022A 12040.00000000 .00000079 00000-0 00000-0 0 4004 2 28358 0.0132 127.4661 0000845 194.4477 175.5802 1.00268969 14 GALAXY 28 1 28702C 05022A 12037.00000000 -.00000095 00000-0 00000-0 0 3709 2 28702 0.0226 87.3732 0001027 73.0383 246.1091 1.00270147 11 GALAXY 28 1 28702C 05022A 12040.00000000 -.00000095 00000-0 00000-0 0 4007 2 28702 0.0225 89.6082 0000980 41.0034 278.8528 1.00270705 15 GALAXY 28 [PM] 1 28702C 05022A 12040.14649306 -.00000095 00000-0 00000-0 0 4011 2 28702 0.0176 80.2929 0001033 50.5245 331.5302 1.00272922 16 GALAXY 14 1 28790C 05030A 12037.00000000 .00000127 00000-0 00000-0 0 3700 2 28790 0.0067 36.5951 0002892 280.7363 53.1757 1.00271317 11 GALAXY 14 1 28790C 05030A 12040.00000000 .00000131 00000-0 00000-0 0 4003 2 28790 0.0581 277.6054 0002824 48.1421 47.7316 1.00273072 10 GALAXY 14 [PM] 1 28790C 05030A 12041.52312500 .00000127 00000-0 00000-0 0 4142 2 28790 0.0552 280.9735 0002584 45.7794 236.5623 1.00269203 10 GALAXY 15 1 28884C 05041A 12037.00000000 .00000169 00000-0 00000-0 0 3702 2 28884 0.0010 48.7284 0002765 267.2410 46.5566 1.00270603 10 GALAXY 15 1 28884C 05041A 12040.00000000 .00000153 00000-0 00000-0 0 4003 2 28884 0.0013 76.4949 0002703 250.3434 38.6444 1.00271256 12 GALAXY 15 [PM] 1 28884C 05041A 12041.77381944 .00000173 00000-0 00000-0 0 4166 2 28884 0.0076 66.2787 0002626 263.8966 315.6230 1.00270234 17 GALAXY 16 1 29236C 06023A 12037.00000000 -.00000046 00000-0 00000-0 0 3700 2 29236 0.0021 116.4714 0003073 206.8368 73.2176 1.00270375 19 GALAXY 16 1 29236C 06023A 12040.00000000 -.00000036 00000-0 00000-0 0 4007 2 29236 0.0495 278.0594 0003058 56.6140 64.7995 1.00269824 18 GALAXY 16 [PM] 1 29236C 06023A 12042.04513889 -.00000037 00000-0 00000-0 0 4200 2 29236 0.0428 286.0971 0002739 25.1582 106.4819 1.00271875 16 GALAXY 17 1 31307C 07016B 12037.00000000 -.00000161 00000-0 00000-0 0 3703 2 31307 0.0011 80.7684 0003308 248.0951 75.6544 1.00271576 15 GALAXY 17 1 31307C 07016B 12040.00000000 -.00000153 00000-0 00000-0 0 4002 2 31307 0.0030 89.4453 0003378 250.4185 67.6113 1.00270669 14 GALAXY 17 [PM] 1 31307C 07016B 12044.09071759 -.00000167 00000-0 00000-0 0 4403 2 31307 0.0014 190.2951 0003323 160.3459 93.5242 1.00271650 15 INTELSAT 11 1 32253C 07044B 12037.00000000 -.00000200 00000-0 00000-0 0 3709 2 32253 0.0523 260.1270 0003115 53.7639 138.6402 1.00269690 16 INTELSAT 11 1 32253C 07044B 12040.00000000 -.00000187 00000-0 00000-0 0 4001 2 32253 0.0478 275.5859 0003144 44.2937 135.5844 1.00272778 13 INTELSAT 11 [PM] 1 32253C 07044B 12046.83012732 -.00000178 00000-0 00000-0 0 4665 2 32253 0.0071 130.1716 0002659 202.0137 68.8607 1.00273231 16 HORIZONS-2 1 32388C 07063B 12037.00000000 -.00000092 00000-0 00000-0 0 3708 2 32388 0.0118 66.5488 0002315 246.7959 267.0303 1.00272225 19 HORIZONS-2 1 32388C 07063B 12040.00000000 -.00000160 00000-0 00000-0 0 4002 2 32388 0.0293 298.5215 0002254 35.3858 249.4265 1.00269581 12 HORIZONS-2 [PM] 1 32388C 07063B 12041.51589120 -.00000064 00000-0 00000-0 0 4142 2 32388 0.0160 356.3045 0002215 339.7502 74.4804 1.00271782 14 GALAXY 18 1 32951C 08024A 12037.00000000 .00000115 00000-0 00000-0 0 3707 2 32951 0.0216 144.7494 0003086 177.6447 50.1256 1.00271303 14 GALAXY 18 1 32951C 08024A 12040.00000000 .00000115 00000-0 00000-0 0 4005 2 32951 0.0204 139.2543 0003113 192.9207 43.3008 1.00270373 15 GALAXY 18 [PM] 1 32951C 08024A 12043.67430556 .00000115 00000-0 00000-0 0 4352 2 32951 0.0288 210.1895 0002910 135.0986 276.5500 1.00273077 13 INTELSAT 25 1 33153C 08034A 12037.00000000 -.00000120 00000-0 00000-0 0 3700 2 33153 0.0567 270.0998 0002072 56.3841 137.5520 1.00269523 10 INTELSAT 25 [PM] 1 33153C 08034A 12038.42689815 -.00000120 00000-0 00000-0 0 3838 2 33153 0.0560 272.7631 0002351 37.7111 308.6659 1.00267105 17 INTELSAT 25 1 33153C 08034A 12040.00000000 -.00000138 00000-0 00000-0 0 4007 2 33153 0.0532 281.3090 0002359 47.3815 138.2948 1.00267688 11 GALAXY 19 1 33376C 08045A 12037.00000000 -.00000051 00000-0 00000-0 0 3702 2 33376 0.0381 225.3904 0003414 91.3134 81.8195 1.00269979 10 GALAXY 19 1 33376C 08045A 12040.00000000 -.00000049 00000-0 00000-0 0 4007 2 33376 0.0192 181.0298 0003304 144.3848 76.0609 1.00271207 16 GALAXY 19 [PM] 1 33376C 08045A 12040.45833333 -.00000049 00000-0 00000-0 0 4032 2 33376 0.0172 176.9513 0003322 151.2831 238.6933 1.00271838 12 INTELSAT 14 1 36097C 09064A 12037.00000000 -.00000235 00000-0 00000-0 0 3701 2 36097 0.0017 157.7830 0002140 165.2154 127.5435 1.00266606 12 INTELSAT 14 1 36097C 09064A 12040.00000000 -.00000142 00000-0 00000-0 0 4006 2 36097 0.0001 145.9176 0002278 181.5404 126.0108 1.00271972 11 INTELSAT 14 [PM] 1 36097C 09064A 12046.93194444 -.00000184 00000-0 00000-0 0 4679 2 36097 0.0104 83.8162 0001976 257.9176 94.0464 1.00274311 17 INTELSAT 15 1 36106C 09067A 12037.00000000 -.00000092 00000-0 00000-0 0 3706 2 36106 0.0061 66.5104 0002831 251.4671 262.6948 1.00271515 17 INTELSAT 15 1 36106C 09067A 12040.00000000 -.00000095 00000-0 00000-0 0 4007 2 36106 0.0323 292.9871 0002810 37.8716 252.7610 1.00270017 19 INTELSAT 15 [PM] 1 36106C 09067A 12041.72234954 -.00000094 00000-0 00000-0 0 4159 2 36106 0.0022 34.5660 0002658 298.5885 152.2059 1.00272003 12 INTELSAT 16 1 36397C 10006A 12037.00000000 -.00000246 00000-0 00000-0 0 3704 2 36397 0.0225 246.3434 0002741 67.1890 123.8926 1.00272276 19 INTELSAT 16 1 36397C 10006A 12040.00000000 .00000102 00000-0 00000-0 0 4002 2 36397 0.0222 221.9111 0002704 101.6858 116.7869 1.00271260 13 INTELSAT 16 [PM] 1 36397C 10006A 12042.01697917 -.00000198 00000-0 00000-0 0 4202 2 36397 0.0165 226.0921 0002589 103.4830 118.9000 1.00272797 12 INTELSAT 17 1 37238C 10065B 12037.00000000 .00000088 00000-0 00000-0 0 3707 2 37238 0.0175 198.6444 0002325 119.7950 243.0816 1.00271734 18 INTELSAT 17 1 37238C 10065B 12040.00000000 .00000088 00000-0 00000-0 0 4005 2 37238 0.0518 275.5009 0002364 57.5383 231.4357 1.00270913 12 INTELSAT 17 [PM] 1 37238C 10065B 12041.56672454 .00000089 00000-0 00000-0 0 4141 2 37238 0.0476 279.8503 0002244 58.4421 71.7409 1.00270465 16 INTELSAT NEW DAWN 1 37392C 11016A 12037.00000000 .00000175 00000-0 00000-0 0 3702 2 37392 0.0113 190.6890 0001745 124.0949 213.5377 1.00272686 11 INTELSAT NEW DAWN 1 37392C 11016A 12040.00000000 .00000245 00000-0 00000-0 0 4008 2 37392 0.0311 233.5422 0000841 129.9107 167.8380 1.00259843 10 INTELSAT NEW DAWN [PM] 1 37392C 11016A 12041.84750000 .00000243 00000-0 00000-0 0 4168 2 37392 0.0485 277.4819 0000860 64.8868 135.8166 1.00271831 19 INTELSAT 18 1 37834C 11056A 12037.00000000 .00000081 00000-0 00000-0 0 3703 2 37834 0.0264 208.4329 0002857 113.2609 353.8283 1.00270421 11 INTELSAT 18 1 37834C 11056A 12040.00000000 .00000139 00000-0 00000-0 0 4005 2 37834 0.0364 256.0888 0002846 76.5673 345.8196 1.00271045 18 INTELSAT 18 [PM] 1 37834C 11056A 12044.34940972 .00000131 00000-0 00000-0 0 4425 2 37834 0.0385 283.4078 0002678 61.1699 103.9746 1.00272853 19